GW2019 Weather Reports


time (UTC)temp
F
wind
direction
speed
knots
gust
knots
rain 1hr
in
rain 24hr
in
rain mn
in
humidity
%
barometer
mb
20260503023121 58 206 7.0 9.6 0.00 0.00 0.00 44 1011.5
20260503022122 58 201 7.8 10.4 0.00 0.00 0.00 43 1011.5
20260503021120 58 202 7.0 8.7 0.00 0.00 0.00 44 1011.5
20260503020122 59 202 10.4 13.9 0.00 0.00 0.00 43 1011.5
20260503015122 59 203 7.8 10.4 0.00 0.00 0.00 42 1011.5
20260503015021 59 202 7.0 10.4 0.00 0.00 0.00 42 1011.5
20260503014120 59 202 8.7 11.3 0.00 0.00 0.00 42 1011.5
20260503013122 59 202 7.0 9.6 0.00 0.00 0.00 42 1011.5
20260503011121 60 236 5.2 11.3 0.00 0.00 0.00 40 1011.5
20260503010120 59 244 10.4 13.9 0.00 0.00 0.00 38 1011.9
20260503005121 59 225 2.6 3.5 0.00 0.00 0.00 42 1011.9
20260503004120 59 225 2.6 3.5 0.00 0.00 0.00 42 1011.5
20260503003121 60 225 1.7 2.6 0.00 0.00 0.00 40 1011.9
20260503002120 60 252 3.5 5.2 0.00 0.00 0.00 38 1011.9
20260503001220 60 270 4.3 7.0 0.00 0.00 0.00 38 1011.9
20260503000222 61 263 5.2 8.7 0.00 0.00 0.00 38 1011.9
20260502235220 60 237 7.0 13.0 0.00 0.00 0.00 36 1012.0
20260502234319 60 231 6.1 7.8 0.00 0.00 0.00 35 1012.2
20260502233320 60 227 6.1 9.6 0.00 0.00 0.00 37 1012.2
20260502232321 60 202 5.2 6.1 0.00 0.00 0.00 37 1012.2
20260502231421 60 203 7.0 10.4 0.00 0.00 0.00 36 1012.2
20260502230420 60 225 6.1 8.7 0.00 0.00 0.00 36 1012.6
20260502223421 60 216 7.0 8.7 0.00 0.00 0.00 35 1012.9
20260502222422 60 205 7.0 8.7 0.00 0.00 0.00 35 1012.9
20260502215620 60 218 9.6 13.9 0.00 0.00 0.00 34 1013.2
20260502214621 61 237 5.2 8.7 0.00 0.00 0.00 33 1013.6
20260502213720 61 238 7.0 10.4 0.00 0.00 0.00 35 1013.6
20260502212721 59 212 8.7 13.0 0.00 0.00 0.00 35 1013.9
20260502211722 61 239 5.2 7.8 0.00 0.00 0.00 32 1013.6
20260502204721 60 233 4.3 6.1 0.00 0.00 0.00 36 1014.7
20260502202736 59 217 7.0 10.4 0.00 0.00 0.00 35 1015.0
20260502201721 59 236 5.2 9.6 0.00 0.00 0.00 35 1015.0
20260502200720 58 228 6.1 11.3 0.00 0.00 0.00 36 1015.3
20260502194821 58 266 5.2 8.7 0.00 0.00 0.00 34 1015.7
20260502193821 58 202 9.6 13.0 0.00 0.00 0.00 37 1016.1
20260502192920 58 261 9.6 14.8 0.00 0.00 0.00 35 1016.1
20260502191921 57 234 7.0 9.6 0.00 0.00 0.00 36 1016.4
20260502185020 57 216 8.7 13.0 0.00 0.00 0.00 37 1016.8
20260502184020 57 231 6.1 10.4 0.00 0.00 0.00 38 1017.1
20260502183119 57 245 7.0 11.3 0.00 0.00 0.00 36 1016.8
20260502182121 56 196 8.7 12.2 0.00 0.00 0.00 35 1017.1
20260502181119 56 198 10.4 13.9 0.00 0.00 0.00 36 1017.8
20260502180120 56 317 6.1 8.7 0.00 0.00 0.00 36 1017.8
20260502170319 54 273 6.1 10.4 0.00 0.00 0.00 38 1018.8
20260502164321 55 259 7.0 10.4 0.00 0.00 0.00 38 1018.8
20260502163320 54 282 7.8 10.4 0.00 0.00 0.00 36 1019.2
20260502161338 54 243 6.1 11.3 0.00 0.00 0.00 38 1019.5
20260502160322 54 248 4.3 7.8 0.00 0.00 0.00 39 1019.5
20260502151519 51 263 3.5 8.7 0.00 0.00 0.00 44 1020.6
20260502151421 51 267 4.3 7.8 0.00 0.00 0.00 43 1020.6
20260502150421 50 256 4.3 7.0 0.00 0.00 0.00 42 1020.6
20260502130420 41 247 4.3 5.2 0.00 0.00 0.00 67 1022.0
20260502123419 38 202 4.3 5.2 0.00 0.00 0.00 71 1022.3
20260502122420 37 202 4.3 6.1 0.00 0.00 0.00 71 1022.3
20260502121420 36 202 4.3 5.2 0.00 0.00 0.00 71 1022.7
20260502115419 34 202 3.5 5.2 0.00 0.00 0.00 77 1022.7
20260502114419 33 202 2.6 3.5 0.00 0.00 0.00 78 1022.7
20260502113422 32 202 2.6 4.3 0.00 0.00 0.00 77 1022.7
20260502112519 32 202 2.6 4.3 0.00 0.00 0.00 77 1022.7
20260502111520 31 202 2.6 3.5 0.00 0.00 0.00 77 1022.7
20260502110521 31 202 2.6 3.5 0.00 0.00 0.00 77 1022.7
20260502105618 31 202 3.5 4.3 0.00 0.00 0.00 75 1022.7
20260502104619 31 202 2.6 3.5 0.00 0.00 0.00 73 1022.7
20260502103620 31 202 2.6 3.5 0.00 0.00 0.00 73 1022.7
20260502102620 31 202 2.6 3.5 0.00 0.00 0.00 73 1022.7
20260502101620 32 202 2.6 3.5 0.00 0.00 0.00 71 1022.7
20260502090820 35 202 2.6 3.5 0.00 0.00 0.00 63 1022.3
20260502065820 36 202 1.7 2.6 0.00 0.00 0.00 59 1022.3
20260502063821 37 202 2.6 3.5 0.00 0.00 0.00 58 1022.7
20260502061821 36 202 2.6 3.5 0.00 0.00 0.00 56 1022.3
20260502060821 38 202 2.6 3.5 0.00 0.00 0.00 56 1022.3
20260502055836 38 202 2.6 3.5 0.00 0.00 0.00 56 1022.3
20260502054820 37 202 1.7 2.6 0.00 0.00 0.00 55 1022.3
20260502053820 38 202 2.6 3.5 0.00 0.00 0.00 56 1022.3
20260502051820 38 202 2.6 4.3 0.00 0.00 0.00 57 1022.3
20260502050918 38 202 0.9 1.7 0.00 0.00 0.00 57 1022.3
20260502045948 38 202 0.9 1.7 0.00 0.00 0.00 55 1022.0
20260502044929 39 202 1.7 2.6 0.00 0.00 0.00 57 1022.0
20260502043930 40 202 1.7 2.6 0.00 0.00 0.00 57 1022.0
20260502043847 40 202 2.6 3.5 0.00 0.00 0.00 57 1022.0
20260502042930 39 202 2.6 3.5 0.00 0.00 0.00 57 1022.0
20260502040930 41 202 1.7 2.6 0.00 0.00 0.00 55 1022.0
20260502035931 41 202 2.6 3.5 0.00 0.00 0.00 54 1022.0
20260502034929 40 202 2.6 3.5 0.00 0.00 0.00 53 1022.0
20260502034028 40 202 1.7 3.5 0.00 0.00 0.00 53 1022.0
20260502033031 41 225 1.7 2.6 0.00 0.00 0.00 54 1022.0
20260502032030 40 247 0.0 0.0 0.00 0.00 0.00 53 1022.0
20260502031931 39 247 0.0 0.0 0.00 0.00 0.00 52 1022.0
20260502030931 41 247 0.9 1.7 0.00 0.00 0.00 52 1022.0
20260502025930 40 315 0.0 0.0 0.00 0.00 0.00 49 1022.0
20260502024930 41 315 0.0 0.0 0.00 0.00 0.00 48 1022.0